• Join FlightAware (Why Join?)
  • Login
  • US Flag GB Flag 
03:03 EDT


 

Airport Tracker/Info


-or-


 

Live Flight TrackerFlight Track Log ✈ DAL268 ✈ 11-Sep-2013 ✈ KJFK - LLBG / TLV

Flight Track Log - Related Links

Times and Time Zones

All times are in EDT time to prevent confusion due to time zone crossing. See the DAL268 flight status page for this flight to view local times or setup timezone preferences in your user account.

Time Position Orientation Groundspeed Altitude Reporting Facility
EDT Latitude Longitude Course Direction KTS MPH feet Rate Location/Type
22:04 40.6390 -73.7720 217° Southwest 120 138  Level FlightAware
22:05 40.6250 -73.7840 213° Southwest 177 204 100 1,140 Climbing FlightAware
22:05 40.6100 -73.7960 211° Southwest 171 197 900 1,620 Climbing FlightAware
22:06 40.5930 -73.8070 206° Southwest 192 221 1,300 960 Climbing FlightAware
22:06 40.5860 -73.8090 192° South 206 237 1,400 840 Climbing FlightAware
22:06 40.5600 -73.7910 152° Southeast 251 289 1,800 780 Climbing FlightAware
22:06 40.5540 -73.7790 123° Southeast 262 302 1,900 600 Climbing FlightAware
22:06 40.5500 -73.7620 107° East 275 316 2,000 1,080 Climbing FlightAware
22:07 40.5510 -73.7130 88° East 291 335 2,600 1,320 Climbing FlightAware
22:07 40.5530 -73.6770 86° East 306 352 3,100 1,860 Climbing FlightAware
22:08 40.5530 -73.6430 90° East 307 353 3,800 2,100 Climbing FlightAware
22:08 40.5540 -73.6020 88° East 312 359 4,600 2,220 Climbing FlightAware
22:08 40.5540 -73.5400 90° East 317 365 5,800 2,280 Climbing FlightAware
22:09 40.5550 -73.5010 88° East 321 369 6,500 1,980 Climbing FlightAware
22:09 40.5550 -73.4470 90° East 325 374 7,400 2,100 Climbing FlightAware
22:10 40.5560 -73.4070 88° East 326 375 8,200 2,160 Climbing FlightAware
22:10 40.5570 -73.3770 87° East 328 377 8,700 2,280 Climbing FlightAware
22:10 40.5570 -73.3350 90° East 325 374 9,600 1,980 Climbing FlightAware
22:11 40.5570 -73.2630 90° East 339 390 10,600 1,260 Climbing FlightAware
22:11 40.5580 -73.1950 89° East 362 417 11,100 960 Climbing FlightAware
22:12 40.5580 -73.1100 90° East 389 448 11,700 1,140 Climbing FlightAware
22:12 40.5590 -73.0400 89° East 402 463 12,400 1,560 Climbing FlightAware
22:13 40.5780 -72.9370 76° East 423 487 13,600 1,800 Climbing FlightAware
22:14 40.5950 -72.8740 70° East 426 490 14,600 1,920 Climbing FlightAware
22:14 40.6180 -72.7840 71° East 437 503 15,700 1,860 Climbing FlightAware
22:15 40.6440 -72.6790 72° East 448 516 16,900 1,860 Climbing FlightAware
22:15 40.6680 -72.5850 71° East 452 520 18,100 1,920 Climbing FlightAware
22:16 40.6880 -72.5090 71° East 459 528 19,000 1,560 Climbing FlightAware
22:17 40.7110 -72.4180 72° East 466 536 19,800 1,440 Climbing FlightAware
22:17 40.7360 -72.3200 71° East 474 545 20,700 1,500 Climbing FlightAware
22:18 40.7640 -72.2060 72° East 483 556 21,700 1,320 Climbing FlightAware
22:18 40.7830 -72.1300 72° East 489 563 22,200 1,320 Climbing FlightAware
22:19 40.8130 -72.0100 72° East 497 572 23,200 840 Climbing FlightAware
22:20 40.8430 -71.8870 72° East 502 578 23,500 1,080 Climbing FlightAware
22:20 40.8700 -71.7750 72° East 514 592 24,700 960 Climbing FlightAware
22:21 40.8950 -71.6750 72° East 514 592 24,700 1,140 Level FlightAware
22:22 40.9230 -71.5570 73° East 520 598 26,100 1,800 Climbing FlightAware
22:22 40.9510 -71.4440 72° East 530 610 26,800 1,140 Climbing FlightAware
22:23 40.9900 -71.2790 73° East 534 615 27,800 840 Climbing FlightAware
22:24 41.0240 -71.1380 72° East 534 615 28,300 1,440 Climbing FlightAware
22:24 41.0570 -71.0630 60° Northeast 523 602 29,500 1,860 Climbing FlightAware
22:25 41.1200 -70.9440 55° Northeast 527 606 30,300 1,020 Climbing FlightAware
22:26 41.1790 -70.8370 54° Northeast 521 600 31,000 540 Climbing FlightAware
22:26 41.2210 -70.7600 54° Northeast 521 600 31,000  Level FlightAware
22:27 41.2940 -70.6300 53° Northeast 518 596 31,000  Level FlightAware
22:28 41.3390 -70.5520 52° Northeast 518 596 31,000  Level FlightAware
22:28 41.3840 -70.4710 53° Northeast 518 596 31,000  Level FlightAware
22:29 41.4490 -70.3500 54° Northeast 517 595 31,000  Level FlightAware
22:29 41.4930 -70.2720 53° Northeast 517 595 31,000  Level FlightAware
22:30 41.5370 -70.1930 53° Northeast 517 595 31,000  Level FlightAware
22:31 41.5810 -70.1150 53° Northeast 517 595 31,000  Level FlightAware
22:31 41.6260 -70.0350 53° Northeast 517 595 31,000  Level FlightAware
22:32 41.6700 -69.9570 53° Northeast 517 595 31,000  Level FlightAware
22:33 41.7140 -69.8780 53° Northeast 517 595 31,000  Level FlightAware
22:33 41.7580 -69.8000 53° Northeast 517 595 31,000  Level FlightAware
22:34 41.8020 -69.7220 53° Northeast 517 595 31,000  Level FlightAware
22:34 41.8460 -69.6430 53° Northeast 517 595 31,000  Level FlightAware
22:35 41.8910 -69.5650 52° Northeast 517 595 31,000  Level FlightAware
22:35 42.0070 -69.2910 60° Northeast 519 597 31,000  Level FlightAware
22:36 42.0570 -69.1950 55° Northeast 521 600 31,000  Level FlightAware
22:37 42.1110 -69.0900 55° Northeast 522 601 31,000  Level FlightAware
22:37 42.1530 -69.0090 55° Northeast 523 602 31,000  Level FlightAware
22:38 42.2020 -68.9140 55° Northeast 523 602 31,000  Level FlightAware
22:38 42.2570 -68.8050 56° Northeast 525 604 31,000  Level FlightAware
22:39 42.2950 -68.7290 56° Northeast 525 604 31,000  Level FlightAware
22:40 42.3370 -68.6460 56° Northeast 525 604 31,000  Level FlightAware
22:40 42.3800 -68.5600 56° Northeast 525 604 31,000  Level FlightAware
22:41 42.4210 -68.4770 56° Northeast 525 604 31,000  Level FlightAware
22:41 42.4630 -68.3930 56° Northeast 525 604 31,000  Level FlightAware
22:42 42.5060 -68.3070 56° Northeast 525 604 31,000  Level FlightAware
22:43 42.5470 -68.2240 56° Northeast 525 604 31,000  Level FlightAware
22:43 42.5900 -68.1380 56° Northeast 525 604 31,000  Level FlightAware
22:44 42.6310 -68.0540 56° Northeast 525 604 31,000  Level FlightAware
22:44 42.6730 -67.9700 56° Northeast 525 604 31,000  Level FlightAware
22:45 42.7140 -67.8860 56° Northeast 525 604 31,000  Level FlightAware
22:46 42.7570 -67.8000 56° Northeast 525 604 31,000  Level FlightAware
22:46 42.7990 -67.7160 56° Northeast 525 604 31,000  Level FlightAware
22:47 42.8400 -67.6320 56° Northeast 525 604 31,000  Level FlightAware
22:47 42.8820 -67.5480 56° Northeast 525 604 31,000  Level FlightAware
22:48 42.9230 -67.4640 56° Northeast 525 604 31,000  Level FlightAware
22:49 43.1300 -67.0410 56° Northeast 542 624 31,000  Level FlightAware
22:50 43.1730 -66.9500 57° Northeast 542 624 31,000  Level FlightAware
22:50 43.2150 -66.8620 57° Northeast 542 624 31,000  Level FlightAware
22:51 43.2570 -66.7740 57° Northeast 542 624 31,000  Level FlightAware
22:51 43.2980 -66.6250 69° East 31,000  Level FlightAware
22:52 43.3670 -66.4470 62° Northeast 557 641 31,000  Level FlightAware
22:53 43.4240 -66.3030 61° Northeast 548 631 31,000  Level FlightAware
22:54 43.4650 -66.1950 62° Northeast 549 632 31,000  Level FlightAware
22:54 43.5090 -66.0800 62° Northeast 549 632 31,000  Level FlightAware
22:55 43.5510 -65.9720 62° Northeast 548 631 31,000  Level FlightAware
22:55 43.5910 -65.8640 63° Northeast 544 626 31,000  Level FlightAware
22:56 43.6330 -65.7560 62° Northeast 544 626 31,000  Level FlightAware
22:56 43.6740 -65.6470 62° Northeast 544 626 31,000  Level FlightAware
22:57 43.7150 -65.5390 62° Northeast 543 625 31,000  Level FlightAware
22:58 43.7550 -65.4300 63° Northeast 544 626 31,000  Level FlightAware
22:58 43.8020 -65.3060 62° Northeast 544 626 31,000  Level FlightAware
22:59 43.8430 -65.1960 63° Northeast 545 627 31,000  Level FlightAware
23:00 43.8900 -65.0680 63° Northeast 545 627 31,000  Level FlightAware
23:00 43.9230 -64.9800 62° Northeast 546 628 31,000  Level FlightAware
23:01 43.9760 -64.8360 63° Northeast 546 628 31,000  Level FlightAware
23:01 44.0210 -64.7130 63° Northeast 550 633 31,000  Level FlightAware
23:02 44.0590 -64.6090 63° Northeast 551 634 31,000  Level FlightAware
23:03 44.1060 -64.4770 64° Northeast 551 634 31,000  Level FlightAware
23:03 44.1510 -64.3530 63° Northeast 551 634 31,000  Level FlightAware
23:04 44.1890 -64.2460 64° Northeast 549 632 31,000  Level FlightAware
23:05 44.2290 -64.1350 63° Northeast 546 628 31,000  Level FlightAware
23:05 44.2660 -64.0310 64° Northeast 545 627 31,000  Level FlightAware
23:06 44.3020 -63.9310 63° Northeast 542 624 31,000  Level FlightAware
23:06 44.3530 -63.7880 63° Northeast 538 619 31,000  Level FlightAware
23:07 44.3920 -63.6760 64° Northeast 537 618 31,000  Level FlightAware
23:08 44.4290 -63.5700 64° Northeast 536 617 31,000  Level FlightAware
23:08 44.4690 -63.4580 63° Northeast 536 617 31,000  Level FlightAware
23:09 44.5050 -63.3520 65° Northeast 536 617 31,000  Level FlightAware
23:09 44.5420 -63.2460 64° Northeast 536 617 31,000  Level FlightAware
23:10 44.5800 -63.1340 64° Northeast 536 617 31,000  Level FlightAware
23:10 44.6170 -63.0270 64° Northeast 537 618 31,000  Level FlightAware
23:11 44.6520 -62.9270 64° Northeast 537 618 31,000  Level FlightAware
23:12 44.6940 -62.8010 65° Northeast 538 619 31,000  Level FlightAware
23:12 44.7310 -62.6940 64° Northeast 538 619 31,000  Level FlightAware
23:13 44.7690 -62.5800 65° Northeast 538 619 31,000  Level FlightAware
23:14 44.8160 -62.4410 64° Northeast 538 619 31,000  Level FlightAware
23:14 44.8480 -62.3440 65° Northeast 537 618 31,000  Level FlightAware
23:15 44.8810 -62.2470 64° Northeast 537 618 31,000  Level FlightAware
23:15 44.9130 -62.1490 65° Northeast 537 618 31,000  Level FlightAware
23:16 44.9450 -62.0520 65° Northeast 537 618 31,000  Level FlightAware
23:17 44.9770 -61.9550 65° Northeast 537 618 31,000  Level FlightAware
23:17 45.0090 -61.8570 65° Northeast 537 618 31,000  Level FlightAware
23:18 45.0410 -61.7600 65° Northeast 537 618 31,000  Level FlightAware
23:18 45.0730 -61.6620 65° Northeast 537 618 31,000  Level FlightAware
23:19 45.1050 -61.5650 65° Northeast 537 618 31,000  Level FlightAware
23:20 45.1380 -61.4670 64° Northeast 537 618 31,000  Level FlightAware
23:20 45.1700 -61.3690 65° Northeast 537 618 31,000  Level FlightAware
23:21 45.2700 -61.0520 66° East 537 618 31,000  Level FlightAware
23:21 45.3060 -60.9400 65° Northeast 538 619 31,000  Level FlightAware
23:22 45.3430 -60.8230 66° East 539 620 31,000  Level FlightAware
23:22 45.3760 -60.7200 65° Northeast 539 620 31,000  Level FlightAware
23:23 45.4130 -60.6000 66° East 538 619 31,000  Level FlightAware
23:24 45.4490 -60.4840 66° East 539 620 31,000  Level FlightAware
23:24 45.4850 -60.3670 66° East 539 620 31,000  Level FlightAware
23:25 45.5180 -60.2630 66° East 538 619 31,000  Level FlightAware
23:25 45.5560 -60.1400 66° East 538 619 31,000  Level FlightAware
23:26 45.5910 -60.0230 67° East 539 620 31,000  Level FlightAware
23:27 45.6230 -59.9220 66° East 538 619 31,000  Level FlightAware
23:27 45.6580 -59.8040 67° East 538 619 31,000  Level FlightAware
23:28 45.6950 -59.6830 66° East 539 620 31,000  Level FlightAware
23:28 45.7250 -59.5820 67° East 540 621 31,000  Level FlightAware
23:29 45.7610 -59.4630 67° East 541 623 31,000  Level FlightAware
23:30 45.7960 -59.3450 67° East 543 625 31,000  Level FlightAware
23:30 45.8320 -59.2220 67° East 545 627 31,000  Level FlightAware
23:31 45.8640 -59.1160 67° East 545 627 31,000  Level FlightAware
23:31 45.9010 -58.9890 67° East 544 626 31,000  Level FlightAware
23:32 45.9340 -58.8760 67° East 545 627 31,000  Level FlightAware
23:32 45.9690 -58.7560 67° East 546 628 31,000  Level FlightAware
23:33 46.0000 -58.6490 67° East 547 629 31,000  Level FlightAware
23:34 46.0300 -58.5440 68° East 548 631 31,000  Level FlightAware
23:34 46.0680 -58.4120 67° East 550 633 31,000  Level FlightAware
23:35 46.1050 -58.2840 67° East 552 635 31,000  Level FlightAware
23:35 46.1350 -58.1780 68° East 551 634 31,000  Level FlightAware
23:36 46.1790 -58.0250 67° East 551 634 31,000  Level FlightAware
23:37 46.2100 -57.9210 67° East 551 634 31,000  Level FlightAware
23:37 46.2400 -57.8170 67° East 551 634 31,000  Level FlightAware
23:38 46.2710 -57.7140 66° East 551 634 31,000  Level FlightAware
23:39 46.3010 -57.6100 67° East 551 634 31,000  Level FlightAware
23:39 46.3320 -57.5060 67° East 551 634 31,000  Level FlightAware
23:40 46.3860 -57.2780 71° East 544 626 31,000  Level FlightAware
23:40 46.4150 -57.1750 68° East 544 626 31,000  Level FlightAware
23:41 46.4500 -57.0410 69° East 544 626 31,000  Level FlightAware
23:42 46.4790 -56.9300 69° East 544 626 31,000  Level FlightAware
23:42 46.5120 -56.7980 70° East 544 626 31,000  Level FlightAware
23:43 46.5420 -56.6780 70° East 545 627 31,000  Level FlightAware
23:43 46.5720 -56.5610 70° East 545 627 31,000  Level FlightAware
23:44 46.6040 -56.4340 70° East 544 626 31,000  Level FlightAware
23:45 46.6420 -56.2830 70° East 543 625 31,000  Level FlightAware
23:45 46.6680 -56.1800 70° East 544 626 31,000  Level FlightAware
23:46 46.6960 -56.0630 71° East 544 626 31,000  Level FlightAware
23:46 46.7310 -55.9220 70° East 542 624 31,000  Level FlightAware
23:47 46.7590 -55.8090 70° East 543 625 31,000  Level FlightAware
23:47 46.7830 -55.7120 70° East 543 625 31,000  Level FlightAware
23:48 46.8150 -55.5810 70° East 544 626 31,000  Level FlightAware
23:49 46.8450 -55.4560 71° East 544 626 31,000  Level FlightAware
23:49 46.8730 -55.3420 70° East 544 626 31,000  Level FlightAware
23:50 46.9020 -55.2140 72° East 543 625 31,000  Level FlightAware
23:50 46.9340 -55.0820 70° East 542 624 31,000  Level FlightAware
23:51 46.9600 -54.9750 70° East 543 625 31,000  Level FlightAware
23:52 46.9870 -54.8560 72° East 545 627 31,000  Level FlightAware
23:52 47.0280 -54.6780 71° East 547 629 31,000  Level FlightAware
23:53 47.0540 -54.5700 71° East 547 629 31,000  Level FlightAware
23:53 47.0830 -54.4430 71° East 546 628 31,000  Level FlightAware
23:54 47.1100 -54.3240 72° East 546 628 31,000  Level FlightAware
23:55 47.1410 -54.1870 72° East 546 628 31,000  Level FlightAware
23:55 47.1650 -54.0810 72° East 547 629 31,000  Level FlightAware
23:56 47.1950 -53.9470 72° East 548 631 31,000  Level FlightAware
23:56 47.2240 -53.8200 71° East 547 629 31,000  Level FlightAware
23:57 47.2510 -53.6960 72° East 546 628 31,000  Level FlightAware
23:58 47.2770 -53.5800 72° East 545 627 31,000  Level FlightAware
23:58 47.3060 -53.4530 71° East 545 627 31,000  Level FlightAware
23:59 47.3330 -53.3290 72° East 545 627 31,000  Level FlightAware
23:59 47.3570 -53.2160 73° East 544 626 31,000  Level FlightAware
00:00 47.3840 -53.0890 73° East 545 627 31,000  Level FlightAware
00:00 47.4110 -52.9610 73° East 543 625 31,000  Level FlightAware
00:01 47.4390 -52.8310 72° East 543 625 31,000  Level FlightAware
00:02 47.4630 -52.7210 72° East 542 624 31,000 120 Level FlightAware
00:02 47.4900 -52.5940 72° East 544 626 31,200 600 Climbing FlightAware
00:03 47.5140 -52.4770 73° East 546 628 31,700 900 Climbing FlightAware
00:03 47.5440 -52.3340 73° East 550 633 32,300 900 Climbing FlightAware
00:04 47.5680 -52.2180 73° East 552 635 32,800 600 Climbing FlightAware
00:05 47.5950 -52.0840 73° East 553 636 33,000 120 Climbing FlightAware
00:05 47.6220 -51.9510 73° East 551 634 33,000  Level FlightAware
00:06 47.6460 -51.8390 72° East 548 631 33,000  Level FlightAware
00:06 47.6720 -51.7060 74° East 547 629 33,000  Level FlightAware
00:07 47.6970 -51.5800 74° East 546 628 33,000  Level FlightAware
00:07 47.7200 -51.4680 73° East 546 628 33,000  Level FlightAware
00:08 47.7430 -51.3580 73° East 546 628 33,000  Level FlightAware
00:09 47.7650 -51.2480 73° East 546 628 33,000  Level FlightAware
00:09 47.7880 -51.1380 73° East 546 628 33,000  Level FlightAware
00:10 47.8100 -51.0280 73° East 546 628 33,000  Level FlightAware
00:10 47.8330 -50.9180 73° East 546 628 33,000  Level FlightAware
00:11 47.8560 -50.8080 73° East 546 628 33,000  Level FlightAware
00:12 47.8820 -50.6790 73° East 546 628 33,000  Level FlightAware
00:12 47.9050 -50.5660 73° East 546 628 33,000  Level FlightAware
00:13 47.9280 -50.4560 73° East 546 628 33,000  Level FlightAware
00:14 47.9500 -50.3450 73° East 546 628 33,000  Level FlightAware
00:14 47.9730 -50.2350 73° East 546 628 33,000  Level FlightAware
00:15 47.9950 -50.1240 73° East 546 628 33,000  Level FlightAware
00:15 48.0190 -50.0110 72° East 546 628 33,000  Level FlightAware
00:16 48.0400 -49.9070 73° East 546 628 33,000  Level FlightAware
00:17 48.0630 -49.7960 73° East 546 628 33,000  Level FlightAware
00:18 48.1667 -49.2000 73° East 550 633 33,000  Level Gander Center
00:19 48.2167 -49.0167 68° East 540 621 33,000  Level Gander Center
00:20 48.2667 -48.7667 73° East 550 633 33,000  Level Gander Center
00:22 48.3833 -48.2833 70° East 570 656 33,000  Level Gander Center
00:23 48.4333 -48.0333 73° East 570 656 33,000  Level Gander Center
00:24 48.5000 -47.8167 65° Northeast 560 644 33,000  Level Gander Center
00:26 48.5704 -47.5113 71° East  Level FlightAware Approximate
00:27 48.6500 -47.2167 71° East 590 679 33,000  Level Gander Center
00:28 48.6833 -47.0000 77° East 570 656 33,000  Level Gander Center
00:30 48.8000 -46.5833 67° East 580 667 33,000  Level Gander Center
00:32 48.8808 -46.2052 72° East  Level FlightAware Approximate
00:39 49.1916 -44.6807 72° East  Level FlightAware Approximate
00:40 49.2343 -44.4614 73° East  Level FlightAware Approximate
00:41 49.2766 -44.2417 73° East  Level FlightAware Approximate
00:42 49.3186 -44.0216 74° East  Level FlightAware Approximate
00:43 49.3600 -43.8011 74° East  Level FlightAware Approximate
00:44 49.4011 -43.5803 74° East  Level FlightAware Approximate
00:45 49.4418 -43.3591 74° East  Level FlightAware Approximate
00:46 49.4820 -43.1376 74° East  Level FlightAware Approximate
00:47 49.5218 -42.9156 74° East  Level FlightAware Approximate
00:48 49.5612 -42.6934 75° East  Level FlightAware Approximate
00:49 49.6001 -42.4707 75° East  Level FlightAware Approximate
00:50 49.6387 -42.2477 75° East  Level FlightAware Approximate
00:51 49.6768 -42.0244 75° East  Level FlightAware Approximate
00:52 49.7144 -41.8007 75° East  Level FlightAware Approximate
00:53 49.7517 -41.5767 75° East  Level FlightAware Approximate
00:54 49.7885 -41.3523 76° East  Level FlightAware Approximate
00:55 49.8248 -41.1276 76° East  Level FlightAware Approximate
00:56 49.8608 -40.9025 76° East  Level FlightAware Approximate
00:57 49.8963 -40.6771 76° East  Level FlightAware Approximate
00:58 49.9314 -40.4514 76° East  Level FlightAware Approximate
00:59 49.9660 -40.2254 77° East  Level FlightAware Approximate
01:00 50.0002 -39.9986 77° East  Level FlightAware Approximate
01:01 50.0321 -39.7783 77° East  Level FlightAware Approximate
01:02 50.0635 -39.5577 77° East  Level FlightAware Approximate
01:03 50.0946 -39.3368 78° East  Level FlightAware Approximate
01:04 50.1252 -39.1156 78° East  Level FlightAware Approximate
01:05 50.1554 -38.8942 78° East  Level FlightAware Approximate
01:06 50.1852 -38.6724 78° East  Level FlightAware Approximate
01:07 50.2145 -38.4504 78° East  Level FlightAware Approximate
01:08 50.2435 -38.2281 78° East  Level FlightAware Approximate
01:09 50.2720 -38.0056 79° East  Level FlightAware Approximate
01:10 50.3000 -37.7828 79° East  Level FlightAware Approximate
01:11 50.3277 -37.5597 79° East  Level FlightAware Approximate
01:12 50.3549 -37.3364 79° East  Level FlightAware Approximate
01:13 50.3817 -37.1128 79° East  Level FlightAware Approximate
01:14 50.4081 -36.8890 79° East  Level FlightAware Approximate
01:15 50.4340 -36.6649 80° East  Level FlightAware Approximate
01:16 50.4595 -36.4406 80° East  Level FlightAware Approximate
01:17 50.4846 -36.2160 80° East  Level FlightAware Approximate
01:18 50.5093 -35.9912 80° East  Level FlightAware Approximate
01:19 50.5335 -35.7661 80° East  Level FlightAware Approximate
01:20 50.5573 -35.5409 80° East  Level FlightAware Approximate
01:21 50.5806 -35.3154 81° East  Level FlightAware Approximate
01:22 50.6035 -35.0897 81° East  Level FlightAware Approximate
01:23 50.6260 -34.8638 81° East  Level FlightAware Approximate
01:24 50.6480 -34.6376 81° East  Level FlightAware Approximate
01:25 50.6696 -34.4113 81° East  Level FlightAware Approximate
01:26 50.6908 -34.1847 82° East  Level FlightAware Approximate
01:27 50.7115 -33.9579 82° East  Level FlightAware Approximate
01:28 50.7318 -33.7310 82° East  Level FlightAware Approximate
01:29 50.7516 -33.5038 82° East  Level FlightAware Approximate
01:30 50.7710 -33.2765 82° East  Level FlightAware Approximate
01:31 50.7899 -33.0490 82° East  Level FlightAware Approximate
01:32 50.8084 -32.8212 83° East  Level FlightAware Approximate
01:33 50.8265 -32.5933 83° East  Level FlightAware Approximate
01:34 50.8441 -32.3653 83° East  Level FlightAware Approximate
01:35 50.8613 -32.1370 83° East  Level FlightAware Approximate
01:36 50.8780 -31.9086 83° East  Level FlightAware Approximate
01:37 50.8943 -31.6801 83° East  Level FlightAware Approximate
01:38 50.9101 -31.4514 84° East  Level FlightAware Approximate
01:39 50.9255 -31.2225 84° East  Level FlightAware Approximate
01:40 50.9405 -30.9935 84° East  Level FlightAware Approximate
01:41 50.9550 -30.7643 84° East  Level FlightAware Approximate
01:42 50.9690 -30.5350 84° East  Level FlightAware Approximate
01:43 50.9826 -30.3055 85° East  Level FlightAware Approximate
01:44 50.9957 -30.0763 85° East  Level FlightAware Approximate
01:45 51.0056 -29.8467 87° East  Level FlightAware Approximate
01:46 51.0137 -29.6168 87° East  Level FlightAware Approximate
01:47 51.0213 -29.3869 87° East  Level FlightAware Approximate
01:48 51.0285 -29.1569 87° East  Level FlightAware Approximate
01:49 51.0352 -28.9268 87° East  Level FlightAware Approximate
01:50 51.0414 -28.6966 87° East  Level FlightAware Approximate
01:51 51.0472 -28.4664 88° East  Level FlightAware Approximate
01:52 51.0526 -28.2362 88° East  Level FlightAware Approximate
01:53 51.0575 -28.0058 88° East  Level FlightAware Approximate
01:54 51.0619 -27.7755 88° East  Level FlightAware Approximate
01:55 51.0659 -27.5450 88° East  Level FlightAware Approximate
01:56 51.0711 -27.3147 88° East  Level FlightAware Approximate
01:57 51.0763 -27.0843 88° East  Level FlightAware Approximate
01:58 51.0810 -26.8538 88° East  Level FlightAware Approximate
01:59 51.0852 -26.6234 88° East  Level FlightAware Approximate
02:00 51.0890 -26.3928 88° East  Level FlightAware Approximate
02:01 51.0924 -26.1623 89° East  Level FlightAware Approximate
02:02 51.0953 -25.9317 89° East  Level FlightAware Approximate
02:03 51.0977 -25.7010 89° East  Level FlightAware Approximate
02:04 51.0997 -25.4704 89° East  Level FlightAware Approximate
02:05 51.1012 -25.2397 89° East  Level FlightAware Approximate
02:06 51.1023 -25.0091 89° East  Level FlightAware Approximate
02:07 51.1029 -24.7784 90° East  Level FlightAware Approximate
02:08 51.1031 -24.5477 90° East  Level FlightAware Approximate
02:09 51.1028 -24.3170 90° East  Level FlightAware Approximate
02:10 51.1020 -24.0863 90° East  Level FlightAware Approximate
02:11 51.1008 -23.8556 90° East  Level FlightAware Approximate
02:12 51.0988 -23.6250 91° East  Level FlightAware Approximate
02:13 51.0958 -23.3944 91° East  Level FlightAware Approximate
02:14 51.0924 -23.1638 91° East  Level FlightAware Approximate
02:15 51.0886 -22.9332 91° East  Level FlightAware Approximate
02:16 51.0843 -22.7027 92° East  Level FlightAware Approximate
02:17 51.0796 -22.4723 92° East  Level FlightAware Approximate
02:18 51.0744 -22.2419 92° East  Level FlightAware Approximate
02:19 51.0687 -22.0115 92° East  Level FlightAware Approximate
02:20 51.0626 -21.7812 92° East  Level FlightAware Approximate
02:21 51.0560 -21.5510 93° East  Level FlightAware Approximate
02:22 51.0490 -21.3208 93° East  Level FlightAware Approximate
02:23 51.0416 -21.0907 93° East  Level FlightAware Approximate
02:24 51.0336 -20.8607 93° East  Level FlightAware Approximate
02:25 51.0253 -20.6307 93° East  Level FlightAware Approximate
02:26 51.0165 -20.4009 93° East  Level FlightAware Approximate
02:27 51.0072 -20.1711 94° East  Level FlightAware Approximate
02:28 50.9936 -19.9422 100° East  Level FlightAware Approximate
02:29 50.9683 -19.7157 100° East  Level FlightAware Approximate
02:30 50.9425 -19.4894 100° East  Level FlightAware Approximate
02:31 50.9163 -19.2633 100° East  Level FlightAware Approximate
02:32 50.8897 -19.0375 101° East  Level FlightAware Approximate
02:33 50.8626 -18.8120 101° East  Level FlightAware Approximate
02:34 50.8351 -18.5868 101° East  Level FlightAware Approximate
02:35 50.8071 -18.3618 101° East  Level FlightAware Approximate
02:36 50.7788 -18.1371 101° East  Level FlightAware Approximate
02:37 50.7500 -17.9126 101° East  Level FlightAware Approximate
02:38 50.7207 -17.6885 102° East  Level FlightAware Approximate
02:39 50.6910 -17.4646 102° East  Level FlightAware Approximate
02:40 50.6609 -17.2410 102° East  Level FlightAware Approximate
02:41 50.6304 -17.0177 102° East  Level FlightAware Approximate
02:42 50.5995 -16.7946 102° East  Level FlightAware Approximate
02:43 50.5681 -16.5719 102° East  Level FlightAware Approximate
02:44 50.5363 -16.3495 103° East  Level FlightAware Approximate
02:45 50.5041 -16.1274 103° East  Level FlightAware Approximate
02:46 50.4715 -15.9056 103° East  Level FlightAware Approximate
02:47 50.4384 -15.6845 103° East  Level FlightAware Approximate
02:48 50.4050 -15.4636 103° East  Level FlightAware Approximate
02:49 50.3712 -15.2431 103° East  Level FlightAware Approximate
02:50 50.3369 -15.0230 104° East  Level FlightAware Approximate
02:51 50.3019 -14.8032 104° East  Level FlightAware Approximate
02:52 50.2665 -14.5838 104° East  Level FlightAware Approximate
02:53 50.2306 -14.3648 104° East  Level FlightAware Approximate
02:54 50.1943 -14.1460 104° East  Level FlightAware Approximate
02:55 50.1576 -13.9276 105° East  Level FlightAware Approximate
02:56 50.1206 -13.7096 105° East  Level FlightAware Approximate
02:57 50.0831 -13.4918 105° East  Level FlightAware Approximate
02:58 50.0452 -13.2745 105° East  Level FlightAware Approximate
02:59 50.0068 -13.0574 105° East  Level FlightAware Approximate
03:00 49.9681 -12.8407 105° East  Level FlightAware Approximate
03:01 49.9290 -12.6244 106° East  Level FlightAware Approximate
03:02 49.8895 -12.4084 106° East  Level FlightAware Approximate
03:03 49.8496 -12.1928 106° East  Level FlightAware Approximate
03:04 49.8092 -11.9775 106° East  Level FlightAware Approximate
03:05 49.7685 -11.7626 106° East  Level FlightAware Approximate
03:06 49.7274 -11.5480 106° East  Level FlightAware Approximate
03:07 49.6859 -11.3339 107° East  Level FlightAware Approximate
03:08 49.6440 -11.1200 107° East  Level FlightAware Approximate
03:08 49.3640 -9.9840 107° East 516 594 35,000  Level FlightAware
03:09 49.6017 -10.9066 107° East  Level FlightAware Approximate
03:09 49.3460 -9.8630 103° East 517 595 35,000  Level FlightAware
03:09 49.3220 -9.7090 103° East 517 595 35,000  Level FlightAware
03:10 49.3060 -9.5990 103° East 517 595 35,000  Level FlightAware
03:11 49.2890 -9.4900 103° East 517 595 35,000  Level FlightAware
03:11 49.2640 -9.3200 103° East 517 595 35,000  Level FlightAware
03:12 49.2280 -9.1020 104° East 515 593 35,000  Level FlightAware
03:13 49.2076 -8.9774 104° East 492 566 35,000  Level FlightAware UK
03:13 49.2120 -8.9930 104° East 515 593 35,000  Level FlightAware
03:13 49.1880 -8.8550 105° East 515 593 35,000  Level FlightAware
03:14 49.1670 -8.7240 104° East 515 593 35,000  Level FlightAware
03:15 49.1440 -8.5800 104° East 513 590 35,000  Level FlightAware
03:15 49.1240 -8.4570 104° East 513 590 35,000  Level FlightAware
03:16 49.1044 -8.3434 104° East 494 568 35,000  Level FlightAware UK
03:16 49.1040 -8.3350 104° East 512 589 35,000  Level FlightAware
03:16 49.0840 -8.2230 105° East 512 589 35,000  Level FlightAware
03:17 49.0640 -8.0970 104° East 512 589 35,000  Level FlightAware
03:17 49.0430 -7.9750 105° East 513 590 35,000  Level FlightAware
03:18 49.0220 -7.8490 104° East 513 590 35,000  Level FlightAware
03:19 48.9990 -7.7270 106° East 514 592 35,000  Level FlightAware
03:19 48.9759 -7.6114 106° East 494 568 35,000  Level FlightAware UK
03:19 48.9710 -7.6000 106° East 515 593 35,000  Level FlightAware
03:20 48.9450 -7.4910 110° East 515 593 35,000  Level FlightAware
03:20 48.9160 -7.3760 111° Southeast 516 594 35,000  Level FlightAware
03:21 48.8830 -7.2520 112° Southeast 517 595 35,000  Level FlightAware
03:22 48.8510 -7.1270 111° Southeast 517 595 35,000  Level FlightAware
03:22 48.8241 -7.0236 111° Southeast 490 564 35,000  Level FlightAware UK
03:22 48.8210 -7.0120 111° Southeast 518 596 35,000  Level FlightAware
03:23 48.7900 -6.8940 112° Southeast 518 596 35,000  Level FlightAware
03:23 48.7580 -6.7730 112° Southeast 518 596 35,000  Level FlightAware
03:24 48.7220 -6.6380 112° Southeast 518 596 35,000  Level FlightAware
03:25 48.6903 -6.5164 112° Southeast 492 566 35,000  Level FlightAware UK
03:25 48.6890 -6.5100 112° Southeast 519 597 35,000  Level FlightAware
03:25 48.6530 -6.3790 113° Southeast 519 597 35,000  Level FlightAware
03:26 48.6260 -6.2750 111° Southeast 519 597 35,000  Level FlightAware
03:26 48.5934 -6.1535 111° Southeast 492 566 35,000  Level FlightAware UK
03:26 48.5880 -6.1340 111° Southeast 520 598 35,000  Level FlightAware
03:27 48.5605 -6.0326 111° Southeast 492 566 35,000  Level FlightAware UK
03:27 48.5620 -6.0360 111° Southeast 520 598 35,000  Level FlightAware
03:28 48.5270 -5.9090 113° Southeast 521 600 35,000  Level FlightAware
03:28 48.4945 -5.7907 113° Southeast 490 564 35,000  Level FlightAware UK
03:28 48.4930 -5.7850 113° Southeast 522 601 35,000  Level FlightAware
03:29 48.4630 -5.6770 113° Southeast 522 601 35,000  Level FlightAware
03:29 48.4300 -5.5530 112° Southeast 520 598 35,000  Level FlightAware
03:30 48.4040 -5.4330 108° East 518 596 35,000  Level FlightAware
03:31 48.3770 -5.3060 108° East 518 596 35,000  Level FlightAware
03:31 48.3530 -5.2000 109° East 518 596 35,000  Level FlightAware
03:32 48.3280 -5.0840 108° East 518 596 35,000  Level FlightAware
03:32 48.2990 -4.9510 108° East 519 597 35,000  Level FlightAware
03:33 48.2750 -4.8450 109° East 519 597 35,000  Level FlightAware
03:33 48.2470 -4.7190 108° East 520 598 35,000  Level FlightAware
03:34 48.2190 -4.5990 109° East 521 600 35,000  Level FlightAware
03:35 48.1910 -4.4730 108° East 522 601 35,000  Level FlightAware
03:35 48.1650 -4.3640 110° East 521 600 35,000  Level FlightAware
03:36 48.1390 -4.2480 109° East 520 598 35,000  Level FlightAware
03:36 48.1090 -4.1190 109° East 520 598 35,000  Level FlightAware
03:37 48.0800 -3.9970 110° East 522 601 35,000  Level FlightAware
03:37 48.0680 -3.9580 115° Southeast 528 608 35,000  Level FlightAware
03:38 48.0180 -3.8560 126° Southeast 533 613 35,000  Level FlightAware
03:38 47.9650 -3.7410 125° Southeast 532 612 35,000  Level FlightAware
03:39 47.9230 -3.6430 123° Southeast 531 611 35,000  Level FlightAware
03:40 47.8650 -3.5150 124° Southeast 533 613 35,000  Level FlightAware
03:40 47.8130 -3.4000 124° Southeast 533 613 35,000  Level FlightAware
03:41 47.7680 -3.3030 125° Southeast 532 612 35,000  Level FlightAware
03:41 47.7200 -3.1960 124° Southeast 531 611 35,000  Level FlightAware
03:42 47.6700 -3.0840 124° Southeast 531 611 35,000  Level FlightAware
03:43 47.6210 -2.9780 124° Southeast 531 611 35,000  Level FlightAware
03:43 47.5760 -2.8790 124° Southeast 532 612 35,000  Level FlightAware
03:44 47.5260 -2.7670 123° Southeast 532 612 35,000  Level FlightAware
03:44 47.4770 -2.6580 124° Southeast 533 613 35,000  Level FlightAware
03:45 47.4330 -2.5650 125° Southeast 532 612 35,000  Level FlightAware
03:45 47.3800 -2.4510 124° Southeast 531 611 35,000  Level FlightAware
03:46 47.3350 -2.3520 124° Southeast 530 610 35,000  Level FlightAware
03:47 47.2860 -2.2490 125° Southeast 526 605 35,000  Level FlightAware
03:47 47.2380 -2.1430 124° Southeast 524 603 35,000  Level FlightAware
03:48 47.1870 -2.0340 125° Southeast 522 601 35,000  Level FlightAware
03:48 47.1330 -1.9200 125° Southeast 521 600 35,000  Level FlightAware
03:49 47.0840 -1.8160 125° Southeast 520 598 35,000  Level FlightAware
03:50 47.0360 -1.7140 125° Southeast 519 597 35,000  Level FlightAware
03:50 46.9900 -1.6170 125° Southeast 518 596 35,000  Level FlightAware
03:51 46.9400 -1.5130 125° Southeast 518 596 35,000  Level FlightAware
03:51 46.8910 -1.4100 125° Southeast 517 595 35,000  Level FlightAware
03:52 46.8420 -1.3100 126° Southeast 518 596 35,000  Level FlightAware
03:53 46.7980 -1.2180 125° Southeast 518 596 35,000  Level FlightAware
03:53 46.7480 -1.1130 125° Southeast 518 596 35,000  Level FlightAware
03:54 46.6950 -1.0050 126° Southeast 517 595 35,000  Level FlightAware
03:54 46.6400 -0.8840 123° Southeast 513 590 35,000  Level FlightAware
03:55 46.6080 -0.7700 112° Southeast 506 582 35,000  Level FlightAware
03:56 46.5850 -0.6280 103° East 504 580 35,000  Level FlightAware
03:56 46.5700 -0.5320 103° East 504 580 35,000  Level FlightAware
03:57 46.5470 -0.3770 102° East 505 581 35,000  Level FlightAware
03:58 46.5320 -0.2810 103° East 505 581 35,000  Level FlightAware
03:58 46.5110 -0.1460 103° East 505 581 35,000  Level FlightAware
03:59 46.4920 -0.0300 103° East 505 581 35,000  Level FlightAware
03:59 46.4750 0.0750 103° East 506 582 35,000  Level FlightAware
04:00 46.4550 0.2040 103° East 506 582 35,000  Level FlightAware
04:01 46.4330 0.3360 104° East 506 582 35,000  Level FlightAware
04:01 46.4130 0.4540 104° East 506 582 35,000  Level FlightAware
04:02 46.3950 0.5660 103° East 506 582 35,000  Level FlightAware
04:02 46.3750 0.6880 103° East 506 582 35,000  Level FlightAware
04:03 46.3580 0.7900 104° East 505 581 35,000  Level FlightAware
04:04 46.3360 0.9110 105° East 506 582 35,000  Level FlightAware
04:04 46.3160 1.0180 105° East 504 580 35,000  Level FlightAware
04:05 46.2960 1.1350 104° East 504 580 35,000  Level FlightAware
04:05 46.2760 1.2490 104° East 503 579 35,000  Level FlightAware
04:06 46.2540 1.3800 104° East 502 578 35,000  Level FlightAware
04:07 46.2370 1.5010 101° East 501 577 35,000  Level FlightAware
04:09 46.0733 1.9496 118° Southeast  Level FlightAware Approximate
04:11 45.9783 2.2065 118° Southeast  Level FlightAware Approximate
04:12 45.9101 2.3895 118° Southeast  Level FlightAware Approximate
04:13 45.8416 2.5720 118° Southeast  Level FlightAware Approximate
04:14 45.7728 2.7541 118° Southeast  Level FlightAware Approximate
04:15 45.7038 2.9357 119° Southeast  Level FlightAware Approximate
04:16 45.6344 3.1168 119° Southeast  Level FlightAware Approximate
04:17 45.5648 3.2975 119° Southeast  Level FlightAware Approximate
04:18 45.4948 3.4778 119° Southeast  Level FlightAware Approximate
04:19 45.4246 3.6576 119° Southeast  Level FlightAware Approximate
04:20 45.3541 3.8370 119° Southeast  Level FlightAware Approximate
04:21 45.2834 4.0159 119° Southeast  Level FlightAware Approximate
04:22 45.2123 4.1944 119° Southeast  Level FlightAware Approximate
04:23 45.1411 4.3729 119° Southeast  Level FlightAware Approximate
04:24 45.0709 4.5516 119° Southeast  Level FlightAware Approximate
04:25 45.0005 4.7299 119° Southeast  Level FlightAware Approximate
04:26 44.9298 4.9078 119° Southeast  Level FlightAware Approximate
04:27 44.8588 5.0852 119° Southeast  Level FlightAware Approximate
04:28 44.7875 5.2622 120° Southeast  Level FlightAware Approximate
04:29 44.7160 5.4388 120° Southeast  Level FlightAware Approximate
04:30 44.6442 5.6149 120° Southeast  Level FlightAware Approximate
04:31 44.5721 5.7906 120° Southeast  Level FlightAware Approximate
04:32 44.4998 5.9658 120° Southeast  Level FlightAware Approximate
04:33 44.4272 6.1406 120° Southeast  Level FlightAware Approximate
04:34 44.3543 6.3150 120° Southeast  Level FlightAware Approximate
04:35 44.2812 6.4889 120° Southeast  Level FlightAware Approximate
04:36 44.2078 6.6624 121° Southeast  Level FlightAware Approximate
04:37 44.1341 6.8355 121° Southeast  Level FlightAware Approximate
04:38 44.0602 7.0082 121° Southeast  Level FlightAware Approximate
04:39 43.9860 7.1804 121° Southeast  Level FlightAware Approximate
04:40 43.9116 7.3521 121° Southeast  Level FlightAware Approximate
04:41 43.8369 7.5235 121° Southeast  Level FlightAware Approximate
04:42 43.7619 7.6944 121° Southeast  Level FlightAware Approximate
04:43 43.6867 7.8649 121° Southeast  Level FlightAware Approximate
04:44 43.6113 8.0350 121° Southeast  Level FlightAware Approximate
04:45 43.5355 8.2046 122° Southeast  Level FlightAware Approximate
04:46 43.4596 8.3738 122° Southeast  Level FlightAware Approximate
04:47 43.3834 8.5426 122° Southeast  Level FlightAware Approximate
04:48 43.3069 8.7110 122° Southeast  Level FlightAware Approximate
04:49 43.2302 8.8789 122° Southeast  Level FlightAware Approximate
04:50 43.1533 9.0464 122° Southeast  Level FlightAware Approximate
04:51 43.0761 9.2135 122° Southeast  Level FlightAware Approximate
04:52 42.9986 9.3802 122° Southeast  Level FlightAware Approximate
04:53 42.9210 9.5464 122° Southeast  Level FlightAware Approximate
04:54 42.8431 9.7123 123° Southeast  Level FlightAware Approximate
04:55 42.7649 9.8777 123° Southeast  Level FlightAware Approximate
04:56 42.6865 10.0427 123° Southeast  Level FlightAware Approximate
04:57 42.6079 10.2073 123° Southeast  Level FlightAware Approximate
04:58 42.5290 10.3715 123° Southeast  Level FlightAware Approximate
04:59 42.4499 10.5352 123° Southeast  Level FlightAware Approximate
05:00 42.3706 10.6985 123° Southeast  Level FlightAware Approximate
05:01 42.2910 10.8615 123° Southeast  Level FlightAware Approximate
05:02 42.2113 11.0240 124° Southeast  Level FlightAware Approximate
05:03 42.1312 11.1861 124° Southeast  Level FlightAware Approximate
05:04 42.0510 11.3478 124° Southeast  Level FlightAware Approximate
05:05 41.9595 11.4971 134° Southeast  Level FlightAware Approximate
05:06 41.8596 11.6372 134° Southeast  Level FlightAware Approximate
05:07 41.7596 11.7768 134° Southeast  Level FlightAware Approximate
05:08 41.6594 11.9160 134° Southeast  Level FlightAware Approximate
05:09 41.5591 12.0548 134° Southeast  Level FlightAware Approximate
05:10 41.4585 12.1931 134° Southeast  Level FlightAware Approximate
05:11 41.3578 12.3310 134° Southeast  Level FlightAware Approximate
05:12 41.2570 12.4685 134° Southeast  Level FlightAware Approximate
05:13 41.1560 12.6056 134° Southeast  Level FlightAware Approximate
05:14 41.0548 12.7422 134° Southeast  Level FlightAware Approximate
05:15 40.9534 12.8784 135° Southeast  Level FlightAware Approximate
05:16 40.8767 13.0349 110° East  Level FlightAware Approximate
05:17 40.8273 13.2143 110° East  Level FlightAware Approximate
05:18 40.7777 13.3933 110° East  Level FlightAware Approximate
05:19 40.7277 13.5721 110° East  Level FlightAware Approximate
05:20 40.6775 13.7506 110° East  Level FlightAware Approximate
05:21 40.6270 13.9288 110° East  Level FlightAware Approximate
05:22 40.5762 14.1068 111° Southeast  Level FlightAware Approximate
05:23 40.5252 14.2845 111° Southeast  Level FlightAware Approximate
05:24 40.4739 14.4619 111° Southeast  Level FlightAware Approximate
05:25 40.4223 14.6391 111° Southeast  Level FlightAware Approximate
05:26 40.3705 14.8160 111° Southeast  Level FlightAware Approximate
05:27 40.3184 14.9926 111° Southeast  Level FlightAware Approximate
05:28 40.2660 15.1690 111° Southeast  Level FlightAware Approximate
05:29 40.2133 15.3450 111° Southeast  Level FlightAware Approximate
05:30 40.1604 15.5208 111° Southeast  Level FlightAware Approximate
05:31 40.1072 15.6963 112° Southeast  Level FlightAware Approximate
05:32 40.0537 15.8716 112° Southeast  Level FlightAware Approximate
05:33 40.0000 16.0466 112° Southeast  Level FlightAware Approximate
05:34 39.9460 16.2212 112° Southeast  Level FlightAware Approximate
05:35 39.8918 16.3957 112° Southeast  Level FlightAware Approximate
05:36 39.8373 16.5698 112° Southeast  Level FlightAware Approximate
05:37 39.7825 16.7437 112° Southeast  Level FlightAware Approximate
05:38 39.7275 16.9172 112° Southeast  Level FlightAware Approximate
05:39 39.6722 17.0906 112° Southeast  Level FlightAware Approximate
05:40 39.6167 17.2636 113° Southeast  Level FlightAware Approximate
05:41 39.5609 17.4363 113° Southeast  Level FlightAware Approximate
05:42 39.5049 17.6088 113° Southeast  Level FlightAware Approximate
05:43 39.4486 17.7810 113° Southeast  Level FlightAware Approximate
05:44 39.3920 17.9529 113° Southeast  Level FlightAware Approximate
05:45 39.3352 18.1246 113° Southeast  Level FlightAware Approximate
05:46 39.2781 18.2959 113° Southeast  Level FlightAware Approximate
05:47 39.2208 18.4670 113° Southeast  Level FlightAware Approximate
05:48 39.1633 18.6378 113° Southeast  Level FlightAware Approximate
05:49 39.1054 18.8083 114° Southeast  Level FlightAware Approximate
05:50 39.0474 18.9786 114° Southeast  Level FlightAware Approximate
05:51 38.9891 19.1485 114° Southeast  Level FlightAware Approximate
05:52 38.9307 19.3176 114° Southeast  Level FlightAware Approximate
05:53 38.8721 19.4864 114° Southeast  Level FlightAware Approximate
05:54 38.8133 19.6550 114° Southeast  Level FlightAware Approximate
05:55 38.7542 19.8232 114° Southeast  Level FlightAware Approximate
05:56 38.6949 19.9912 114° Southeast  Level FlightAware Approximate
05:57 38.6353 20.1589 114° Southeast  Level FlightAware Approximate
05:58 38.5756 20.3263 115° Southeast  Level FlightAware Approximate
05:59 38.5155 20.4935 115° Southeast  Level FlightAware Approximate
06:00 38.4552 20.6603 115° Southeast  Level FlightAware Approximate
06:01 38.3947 20.8269 115° Southeast  Level FlightAware Approximate
06:02 38.3340 20.9932 115° Southeast  Level FlightAware Approximate
06:03 38.2730 21.1592 115° Southeast  Level FlightAware Approximate
06:04 38.2118 21.3250 115° Southeast  Level FlightAware Approximate
06:05 38.1504 21.4904 115° Southeast  Level FlightAware Approximate
06:06 38.0887 21.6556 115° Southeast  Level FlightAware Approximate
06:06 37.8000 21.3330 115° Southeast 526 605 37,000  Level FlightAware
06:07 38.0268 21.8205 115° Southeast  Level FlightAware Approximate
06:07 37.7600 21.4570 112° Southeast 525 604 37,000  Level FlightAware
06:07 37.7260 21.5620 112° Southeast 525 604 37,000  Level FlightAware
06:08 37.6980 21.6510 112° Southeast 525 604 37,000  Level FlightAware
06:08 37.6700 21.7390 112° Southeast 525 604 37,000  Level FlightAware
06:09 37.6420 21.8260 112° Southeast 525 604 37,000  Level FlightAware
06:10 37.6140 21.9130 112° Southeast 525 604 37,000  Level FlightAware
06:10 37.5860 22.0000 112° Southeast 525 604 37,000  Level FlightAware
06:11 37.5560 22.0940 112° Southeast 525 604 37,000  Level FlightAware
06:11 37.5280 22.1810 112° Southeast 525 604 37,000  Level FlightAware
06:12 37.5000 22.2680 112° Southeast 525 604 37,000  Level FlightAware
06:13 37.4190 22.4990 114° Southeast 512 589 37,000  Level FlightAware
06:13 37.3850 22.5980 113° Southeast 508 585 37,000  Level FlightAware
06:14 37.3520 22.6960 113° Southeast 510 587 37,000  Level FlightAware
06:15 37.3200 22.7940 112° Southeast 506 582 37,000  Level FlightAware
06:15 37.2810 22.9090 113° Southeast 508 585 37,000  Level FlightAware
06:16 37.2480 23.0060 113° Southeast 509 586 37,000  Level FlightAware
06:16 37.2140 23.1070 113° Southeast 509 586 37,000  Level FlightAware
06:17 37.1800 23.2050 114° Southeast 510 587 37,000  Level FlightAware
06:18 37.1510 23.2890 113° Southeast 509 586 37,000  Level FlightAware
06:18 37.1170 23.3890 113° Southeast 508 585 37,000  Level FlightAware
06:19 37.0860 23.4790 113° Southeast 509 586 37,000  Level FlightAware
06:19 37.0530 23.5730 114° Southeast 510 587 37,000  Level FlightAware
06:20 37.0180 23.6740 113° Southeast 511 588 37,000  Level FlightAware
06:21 36.9840 23.7740 113° Southeast 513 590 37,000  Level FlightAware
06:21 36.9490 23.8720 114° Southeast 515 593 37,000  Level FlightAware
06:22 36.9190 23.9590 113° Southeast 517 595 37,000  Level FlightAware
06:22 36.8850 24.0550 114° Southeast 518 596 37,000  Level FlightAware
06:23 36.8540 24.1430 114° Southeast 519 597 37,000  Level FlightAware
06:23 36.8170 24.2480 114° Southeast 521 600 37,000  Level FlightAware
06:24 36.7820 24.3470 114° Southeast 521 600 37,000  Level FlightAware
06:25 36.7470 24.4450 114° Southeast 521 600 37,000  Level FlightAware
06:25 36.7160 24.5330 114° Southeast 520 598 37,000  Level FlightAware
06:26 36.6790 24.6340 115° Southeast 520 598 37,000  Level FlightAware
06:26 36.6440 24.7330 114° Southeast 521 600 37,000  Level FlightAware
06:27 36.6150 24.8150 114° Southeast 520 598 37,000  Level FlightAware
06:28 36.5750 24.9240 115° Southeast 520 598 37,000  Level FlightAware
06:28 36.5430 25.0110 115° Southeast 520 598 37,000  Level FlightAware
06:29 36.5070 25.1120 114° Southeast 520 598 37,000  Level FlightAware
06:29 36.4710 25.2100 115° Southeast 519 597 37,000  Level FlightAware
06:30 36.4360 25.3050 115° Southeast 517 595 37,000  Level FlightAware
06:30 36.4040 25.3910 115° Southeast 517 595 37,000  Level FlightAware
06:31 36.3690 25.4880 114° Southeast 518 596 37,000  Level FlightAware
06:32 36.3320 25.5880 115° Southeast 519 597 37,000  Level FlightAware
06:32 36.3000 25.6750 115° Southeast 519 597 37,000  Level FlightAware
06:33 36.2640 25.7720 115° Southeast 520 598 37,000  Level FlightAware
06:33 36.2290 25.8670 115° Southeast 521 600 37,000  Level FlightAware
06:34 36.1910 25.9670 115° Southeast 521 600 37,000  Level FlightAware
06:34 36.1590 26.0540 114° Southeast 522 601 37,000  Level FlightAware
06:35 36.1220 26.1510 115° Southeast 522 601 37,000  Level FlightAware
06:36 36.0840 26.2510 115° Southeast 522 601 37,000  Level FlightAware
06:36 36.0510 26.3400 115° Southeast 521 600 37,000  Level FlightAware
06:37 36.0140 26.4370 115° Southeast 521 600 37,000  Level FlightAware
06:37 35.9810 26.5230 115° Southeast 520 598 37,000  Level FlightAware
06:38 35.9460 26.6150 115° Southeast 520 598 37,000  Level FlightAware
06:39 35.9080 26.7170 115° Southeast 521 600 37,000  Level FlightAware
06:39 35.8610 26.8380 116° Southeast 521 600 37,000  Level FlightAware
06:40 35.8300 26.9210 115° Southeast 521 600 37,000  Level FlightAware
06:41 35.7980 27.0030 116° Southeast 521 600 37,000  Level FlightAware
06:41 35.7670 27.0860 115° Southeast 521 600 37,000  Level FlightAware
06:42 35.7350 27.1700 115° Southeast 521 600 37,000  Level FlightAware
06:42 35.7040 27.2530 115° Southeast 521 600 37,000  Level FlightAware
06:43 35.6740 27.3330 115° Southeast 521 600 37,000  Level FlightAware
06:44 35.6430 27.4150 115° Southeast 521 600 37,000  Level FlightAware
06:44 35.6110 27.4970 116° Southeast 521 600 37,000  Level FlightAware
06:45 35.5800 27.5790 115° Southeast 521 600 37,000  Level FlightAware
06:45 35.5490 27.6620 115° Southeast 521 600 37,000  Level FlightAware
06:46 35.5180 27.7440 115° Southeast 521 600 37,000  Level FlightAware
06:47 35.4860 27.8280 115° Southeast 521 600 37,000  Level FlightAware
06:47 35.4550 27.9100 115° Southeast 521 600 37,000  Level FlightAware
06:48 35.3300 28.1880 119° Southeast 518 596 37,000  Level FlightAware
06:48 35.2960 28.2720 116° Southeast 519 597 37,000  Level FlightAware
06:49 35.2470 28.3960 116° Southeast 520 598 37,000  Level FlightAware
06:50 35.2180 28.4650 117° Southeast 520 598 37,000  Level FlightAware
06:50 35.1750 28.5730 116° Southeast 521 600 37,000  Level FlightAware
06:51 35.1370 28.6660 117° Southeast 521 600 37,000  Level FlightAware
06:52 35.1050 28.7470 116° Southeast 521 600 37,000  Level FlightAware
06:52 35.0720 28.8280 116° Southeast 521 600 37,000  Level FlightAware
06:53 35.0400 28.9090 116° Southeast 521 600 37,000  Level FlightAware
06:53 35.0070 28.9930 116° Southeast 521 600 37,000  Level FlightAware
06:54 34.9740 29.0740 116° Southeast 521 600 37,000  Level FlightAware
06:55 34.9420 29.1540 116° Southeast 521 600 37,000  Level FlightAware
06:55 34.9100 29.2350 116° Southeast 521 600 37,000  Level FlightAware
06:56 34.8770 29.3160 116° Southeast 521 600 37,000  Level FlightAware
06:56 34.7830 29.5260 119° Southeast 37,000  Level FlightAware
06:57 34.7490 29.6060 117° Southeast 516 594 37,000  Level FlightAware
06:57 34.7050 29.7110 117° Southeast 517 595 37,000  Level FlightAware
06:58 34.6680 29.7990 117° Southeast 518 596 37,000  Level FlightAware
06:59 34.6360 29.8720 118° Southeast 522 601 37,000  Level FlightAware
06:59 34.6000 29.9590 117° Southeast 522 601 37,000  Level FlightAware
07:00 34.5660 30.0390 117° Southeast 522 601 37,000  Level FlightAware
07:00 34.5270 30.0990 128° Southeast 974 1121 37,000  Level FlightAware
07:01 34.4490 30.2630 120° Southeast 37,000  Level FlightAware
07:02 34.4010 30.3640 120° Southeast 520 598 37,000  Level FlightAware
07:02 34.3580 30.4540 120° Southeast 519 597 37,000  Level FlightAware
07:03 34.3150 30.5420 121° Southeast 518 596 37,000  Level FlightAware
07:04 34.2740 30.6270 120° Southeast 518 596 37,000  Level FlightAware
07:04 34.2320 30.7170 119° Southeast 518 596 37,000  Level FlightAware
07:05 34.1900 30.8020 121° Southeast 518 596 37,000  Level FlightAware
07:05 34.1500 30.8870 120° Southeast 518 596 37,000  Level FlightAware
07:06 34.1030 30.9820 121° Southeast 519 597 37,000  Level FlightAware
07:06 34.0660 31.0590 120° Southeast 515 593 37,000  Level FlightAware
07:07 34.0240 31.1440 121° Southeast 519 597 37,000  Level FlightAware
07:08 33.9760 31.2410 121° Southeast 518 596 37,000  Level FlightAware
07:08 33.9260 31.3430 121° Southeast 515 593 37,000  Level FlightAware
07:09 33.8840 31.4300 120° Southeast 515 593 37,000 -720 Level FlightAware
07:09 33.8400 31.5170 121° Southeast 520 598 36,200 -1,560 Descending FlightAware
07:10 33.7920 31.6140 121° Southeast 532 612 35,100 -900 Descending FlightAware
07:11 33.7510 31.6970 121° Southeast 532 612 35,000 -120 Descending FlightAware
07:11 33.6930 31.8140 121° Southeast 532 612 35,000  Level FlightAware
07:12 33.6460 31.9080 121° Southeast 532 612 35,000  Level FlightAware
07:13 33.6010 31.9960 122° Southeast 532 612 35,000  Level FlightAware
07:13 33.5630 32.0750 120° Southeast 532 612 35,000  Level FlightAware
07:14 33.5190 32.1610 122° Southeast 532 612 35,000  Level FlightAware
07:14 33.4660 32.2670 121° Southeast 533 613 35,000 -120 Level FlightAware
07:15 33.4300 32.3380 121° Southeast 532 612 34,900 -840 Descending FlightAware
07:16 33.3850 32.4260 121° Southeast 533 613 34,100 -1,380 Descending FlightAware
07:16 33.3400 32.5170 121° Southeast 530 610 33,300 -1,380 Descending FlightAware
07:17 33.2900 32.6120 122° Southeast 527 606 32,500 -1,140 Descending FlightAware
07:17 33.2340 32.7230 121° Southeast 521 600 31,800 -1,020 Descending FlightAware
07:18 33.1880 32.8140 121° Southeast 516 594 31,200 -960 Descending FlightAware
07:19 33.1480 32.8910 122° Southeast 515 593 30,700 -960 Descending FlightAware
07:19 33.0850 33.0130 122° Southeast 649 747 29,900 -1,020 Descending FlightAware
07:20 33.0410 33.0990 121° Southeast 506 582 29,300 -900 Descending FlightAware
07:21 32.9790 33.2190 122° Southeast 496 571 28,600 -780 Descending FlightAware
07:22 32.9290 33.3180 121° Southeast 483 556 28,100 -2,160 Descending FlightAware
07:22 32.8810 33.4090 122° Southeast 462 532 25,600 -3,120 Descending FlightAware
07:23 32.8390 33.4870 123° Southeast 449 517 24,200 -2,400 Descending FlightAware
07:24 32.8010 33.5600 122° Southeast 438 504 22,800 -2,400 Descending FlightAware
07:24 32.7690 33.6230 121° Southeast 430 495 21,600 -2,340 Descending FlightAware
07:25 32.7280 33.7000 122° Southeast 419 482 20,100 -2,520 Descending FlightAware
07:25 32.6910 33.7720 121° Southeast 414 476 18,500 -2,520 Descending FlightAware
07:26 32.6550 33.8390 123° Southeast 405 466 17,100 -2,340 Descending FlightAware
07:26 32.6210 33.9040 122° Southeast 396 456 15,800 -2,280 Descending FlightAware
07:27 32.5860 33.9700 122° Southeast 388 447 14,500 -2,220 Descending FlightAware
07:28 32.5580 34.0210 123° Southeast 381 438 13,400 -2,220 Descending FlightAware
07:28 32.5230 34.0900 121° Southeast 372 428 12,000 -2,220 Descending FlightAware
07:29 32.4910 34.1480 123° Southeast 363 418 10,800 -1,080 Descending FlightAware
07:30 32.4330 34.2230 132° Southeast 317 365 10,400 -420 Descending FlightAware
07:30 32.4010 34.2600 136° Southeast 290 334 10,200 -600 Descending FlightAware
07:31 32.3820 34.2820 136° Southeast 275 316 9,900 -1,260 Descending FlightAware
07:31 32.3550 34.3140 135° Southeast 268 308 9,200 -1,320 Descending FlightAware
07:31 32.3340 34.3390 135° Southeast 271 312 8,800 -1,260 Descending FlightAware
07:32 32.3200 34.3540 138° Southeast 269 310 8,400 -1,380 Descending FlightAware
07:32 32.3050 34.3730 133° Southeast 267 307 8,000 -1,200 Descending FlightAware
07:32 32.2860 34.3940 137° Southeast 261 300 7,600 -1,320 Descending FlightAware
07:33 32.2690 34.4140 135° Southeast 258 297 7,100 -780 Descending FlightAware
07:33 32.2420 34.4460 135° Southeast 258 297 6,900 -1,380 Descending FlightAware
07:33 32.2320 34.4580 135° Southeast 254 292 6,100 -2,580 Descending FlightAware
07:34 32.2160 34.4890 121° Southeast 250 288 5,500 -1,200 Descending FlightAware
07:34 32.2050 34.5090 123° Southeast 248 285 5,200 -420 Descending FlightAware
07:35 32.1810 34.5550 122° Southeast 247 284 5,100 -120 Descending FlightAware
07:35 32.1720 34.5740 119° Southeast 249 287 5,100  Level FlightAware
07:36 32.1570 34.6000 124° Southeast 251 289 5,100  Level FlightAware
07:36 32.1460 34.6220 121° Southeast 251 289 5,100  Level FlightAware
07:36 32.1320 34.6470 123° Southeast 251 289 5,100  Level FlightAware
07:37 32.1200 34.6680 124° Southeast 252 290 5,100  Level FlightAware
07:37 32.1070 34.6910 124° Southeast 252 290 5,100  Level FlightAware
07:37 32.0920 34.7200 121° Southeast 252 290 5,100  Level FlightAware
07:38 32.0770 34.7480 122° Southeast 252 290 5,100  Level FlightAware
07:38 32.0630 34.7710 126° Southeast 225 259 5,100 -360 Level FlightAware
07:38 32.0480 34.7890 135° Southeast 222 255 4,900 -360 Descending FlightAware
07:39 32.0250 34.8160 135° Southeast 221 254 4,800 -300 Descending FlightAware
07:39 32.0030 34.8410 136° Southeast 224 258 4,600 -300 Descending FlightAware
07:40 31.9770 34.8700 137° Southeast 221 254 4,500 -900 Descending FlightAware
07:41 31.9750 34.9020 94° East 182 209 3,600 -1,740 Descending FlightAware
07:41 31.9770 34.9140 79° East 177 204 3,200 -1,740 Descending FlightAware
07:41 31.9840 34.9440 75° East 176 203 2,300 -1,740 Descending FlightAware
07:41 31.9870 34.9520 66° East 184 212 2,100 -1,200 Descending FlightAware
07:42 31.9930 34.9610 52° Northeast 181 208 1,900 -780 Descending FlightAware
07:42 31.9970 34.9630 23° Northeast 179 206 1,900 -720 Level FlightAware
07:42 32.0200 34.9580 350° North 170 196 1,500 -600 Descending FlightAware
07:43 32.0430 34.9440 333° Northwest 170 196 1,200 -480 Descending FlightAware